When you browse on this site, cookies collect data to enhance your experience and personalize the content and advertising you see.
Visit our Privacy Policy to learn more. By continuing to use the site, you agree to this use of cookies and data.

Stündliche Wetter Kormuzh

Heute, 11 Juli, Samstag

Zeit Temperatur Niederschläge Wind Luftdruck Luftfeuchtigkeit
00:00 +20°C° 0.1 mm 4 m/S 747 mmHg 95%
01:00 +20°C° 0.1 mm 4 m/S 747 mmHg 95%
02:00 +20°C° 0.1 mm 5 m/S 747 mmHg 95%
03:00 +20°C° 0.1 mm 5 m/S 747 mmHg 94%
04:00 +20°C° 0.1 mm 5 m/S 747 mmHg 94%
05:00 +19°C° 0.1 mm 5 m/S 747 mmHg 94%
06:00 +20°C° 0 mm 4 m/S 748 mmHg 91%
07:00 +21°C° 0 mm 4 m/S 748 mmHg 88%
08:00 +23°C° 0 mm 4 m/S 749 mmHg 85%
09:00 +25°C° 0 mm 3 m/S 749 mmHg 78%
10:00 +26°C° 0 mm 2 m/S 749 mmHg 72%
11:00 +27°C° 0 mm 1 m/S 749 mmHg 66%
12:00 +27°C° 0.5 mm 2 m/S 749 mmHg 70%
13:00 +26°C° 0.5 mm 3 m/S 750 mmHg 74%
14:00 +25°C° 0.5 mm 4 m/S 750 mmHg 78%
15:00 +25°C° 0.2 mm 4 m/S 750 mmHg 78%
16:00 +25°C° 0.2 mm 4 m/S 749 mmHg 77%
17:00 +23°C° 0.2 mm 4 m/S 749 mmHg 77%
18:00 +22°C° 0.3 mm 4 m/S 749 mmHg 81%
19:00 +20°C° 0.3 mm 4 m/S 749 mmHg 85%
20:00 +18°C° 0.3 mm 4 m/S 749 mmHg 89%
21:00 +17°C° 0.4 mm 4 m/S 750 mmHg 88%
22:00 +17°C° 0.4 mm 4 m/S 750 mmHg 88%
23:00 +15°C° 0.4 mm 4 m/S 750 mmHg 88%

Morgen, 12 Juli, Sonntag

Zeit Temperatur Niederschläge Wind Luftdruck Luftfeuchtigkeit
00:00 +14°C° 2.1 mm 4 m/S 750 mmHg 89%
01:00 +14°C° 2.1 mm 4 m/S 750 mmHg 91%
02:00 +13°C° 2.1 mm 5 m/S 750 mmHg 92%
03:00 +13°C° 0.5 mm 5 m/S 750 mmHg 93%
04:00 +12°C° 0.5 mm 5 m/S 750 mmHg 93%
05:00 +12°C° 0.5 mm 5 m/S 750 mmHg 94%
06:00 +12°C° 0.4 mm 5 m/S 750 mmHg 94%
07:00 +12°C° 0.4 mm 5 m/S 750 mmHg 95%
08:00 +11°C° 0.4 mm 6 m/S 751 mmHg 95%
09:00 +10°C° 0.3 mm 5 m/S 751 mmHg 94%
10:00 +10°C° 0.3 mm 5 m/S 751 mmHg 94%
11:00 +10°C° 0.3 mm 5 m/S 751 mmHg 93%
12:00 +10°C° 0.4 mm 5 m/S 751 mmHg 94%
13:00 +9°C° 0.4 mm 5 m/S 751 mmHg 94%
14:00 +9°C° 0.4 mm 5 m/S 751 mmHg 94%
15:00 +11°C° 0.6 mm 4 m/S 751 mmHg 94%
16:00 +11°C° 0.6 mm 3 m/S 751 mmHg 94%
17:00 +11°C° 0.6 mm 3 m/S 751 mmHg 94%
18:00 +12°C° 0.1 mm 2 m/S 751 mmHg 94%
19:00 +12°C° 0.1 mm 1 m/S 751 mmHg 94%
20:00 +13°C° 0.1 mm 1 m/S 751 mmHg 94%
21:00 +12°C° 0 mm 1 m/S 751 mmHg 95%
22:00 +12°C° 0 mm 2 m/S 751 mmHg 95%
23:00 +10°C° 0 mm 2 m/S 751 mmHg 96%

übermorgen, 13 Juli, Montag

Zeit Temperatur Niederschläge Wind Luftdruck Luftfeuchtigkeit
00:00 +10°C° 0 mm 2 m/S 751 mmHg 96%
01:00 +10°C° 0 mm 3 m/S 751 mmHg 96%
02:00 +10°C° 0 mm 3 m/S 751 mmHg 96%
03:00 +10°C° 0 mm 3 m/S 751 mmHg 96%
04:00 +9°C° 0 mm 3 m/S 751 mmHg 96%
05:00 +9°C° 0 mm 3 m/S 751 mmHg 96%
06:00 +11°C° 0 mm 4 m/S 751 mmHg 90%
07:00 +12°C° 0 mm 4 m/S 751 mmHg 85%
08:00 +13°C° 0 mm 4 m/S 751 mmHg 80%
09:00 +15°C° 0 mm 4 m/S 750 mmHg 74%
10:00 +17°C° 0 mm 4 m/S 750 mmHg 68%
11:00 +18°C° 0 mm 4 m/S 750 mmHg 62%
12:00 +18°C° 0.1 mm 4 m/S 750 mmHg 62%
13:00 +19°C° 0.1 mm 4 m/S 750 mmHg 62%
14:00 +19°C° 0.1 mm 5 m/S 750 mmHg 62%
15:00 +19°C° 0.1 mm 4 m/S 749 mmHg 63%
16:00 +19°C° 0.1 mm 4 m/S 749 mmHg 63%
17:00 +19°C° 0.1 mm 4 m/S 749 mmHg 63%
18:00 +18°C° 0 mm 3 m/S 749 mmHg 70%
19:00 +16°C° 0 mm 3 m/S 749 mmHg 77%
20:00 +15°C° 0 mm 2 m/S 749 mmHg 85%
21:00 +14°C° 0 mm 2 m/S 749 mmHg 87%
22:00 +13°C° 0 mm 2 m/S 749 mmHg 90%
23:00 +12°C° 0 mm 2 m/S 749 mmHg 93%

14 Juli, Dienstag

Zeit Temperatur Niederschläge Wind Luftdruck Luftfeuchtigkeit
00:00 +12°C° 0 mm 2 m/S 749 mmHg 94%
01:00 +12°C° 0 mm 2 m/S 749 mmHg 94%
02:00 +10°C° 0 mm 2 m/S 749 mmHg 95%
03:00 +10°C° 0 mm 2 m/S 749 mmHg 95%
04:00 +10°C° 0 mm 2 m/S 749 mmHg 96%
05:00 +10°C° 0 mm 2 m/S 749 mmHg 96%
06:00 +13°C° 0 mm 2 m/S 749 mmHg 90%
07:00 +15°C° 0 mm 2 m/S 749 mmHg 84%
08:00 +17°C° 0 mm 2 m/S 749 mmHg 77%
09:00 +18°C° 0 mm 3 m/S 749 mmHg 72%
10:00 +19°C° 0 mm 3 m/S 749 mmHg 66%
11:00 +21°C° 0 mm 3 m/S 749 mmHg 60%
12:00 +21°C° 0.1 mm 3 m/S 749 mmHg 59%
13:00 +22°C° 0.1 mm 3 m/S 749 mmHg 59%
14:00 +22°C° 0.1 mm 4 m/S 749 mmHg 58%
15:00 +22°C° 0.1 mm 3 m/S 749 mmHg 59%
16:00 +22°C° 0.1 mm 3 m/S 749 mmHg 60%
17:00 +21°C° 0.1 mm 3 m/S 748 mmHg 62%
18:00 +20°C° 0 mm 3 m/S 748 mmHg 69%
19:00 +18°C° 0 mm 2 m/S 749 mmHg 76%
20:00 +17°C° 0 mm 2 m/S 749 mmHg 83%
21:00 +15°C° 0 mm 1 m/S 749 mmHg 85%
22:00 +14°C° 0 mm 1 m/S 749 mmHg 88%
23:00 +13°C° 0 mm 1 m/S 749 mmHg 91%

15 Juli, Mittwoch

Zeit Temperatur Niederschläge Wind Luftdruck Luftfeuchtigkeit
00:00 +13°C° 0 mm 1 m/S 749 mmHg 91%
01:00 +13°C° 0 mm 1 m/S 749 mmHg 92%
02:00 +12°C° 0 mm 1 m/S 749 mmHg 92%
03:00 +12°C° 0 mm 1 m/S 749 mmHg 92%
04:00 +12°C° 0 mm 1 m/S 749 mmHg 91%
05:00 +11°C° 0 mm 0 m/S 749 mmHg 91%
06:00 +13°C° 0 mm 0 m/S 749 mmHg 84%
07:00 +15°C° 0 mm 0 m/S 749 mmHg 77%
08:00 +17°C° 0 mm 0 m/S 749 mmHg 71%
09:00 +19°C° 0 mm 0 m/S 749 mmHg 66%
10:00 +20°C° 0 mm 0 m/S 749 mmHg 61%
11:00 +24°C° 0 mm 1 m/S 749 mmHg 56%
12:00 +24°C° 0.2 mm 1 m/S 748 mmHg 57%
13:00 +24°C° 0.2 mm 1 m/S 748 mmHg 58%
14:00 +23°C° 0.2 mm 2 m/S 748 mmHg 60%
15:00 +23°C° 0.4 mm 2 m/S 748 mmHg 64%
16:00 +23°C° 0.4 mm 1 m/S 747 mmHg 68%
17:00 +23°C° 0.4 mm 1 m/S 747 mmHg 72%
18:00 +21°C° 0 mm 1 m/S 747 mmHg 76%
19:00 +20°C° 0 mm 1 m/S 747 mmHg 80%
20:00 +18°C° 0 mm 2 m/S 746 mmHg 84%
21:00 +17°C° 0 mm 2 m/S 746 mmHg 86%
22:00 +16°C° 0 mm 2 m/S 746 mmHg 88%
23:00 +15°C° 0 mm 2 m/S 746 mmHg 89%

16 Juli, Donnerstag

Zeit Temperatur Niederschläge Wind Luftdruck Luftfeuchtigkeit
00:00 +15°C° 0 mm 2 m/S 746 mmHg 90%
01:00 +15°C° 0 mm 2 m/S 746 mmHg 92%
02:00 +14°C° 0 mm 2 m/S 745 mmHg 93%
03:00 +14°C° 0 mm 2 m/S 745 mmHg 93%
04:00 +15°C° 0 mm 2 m/S 745 mmHg 93%
05:00 +15°C° 0 mm 2 m/S 744 mmHg 94%
06:00 +14°C° 0.2 mm 3 m/S 744 mmHg 94%
07:00 +16°C° 0.2 mm 3 m/S 744 mmHg 94%
08:00 +17°C° 0.2 mm 3 m/S 744 mmHg 94%
09:00 +17°C° 0.3 mm 3 m/S 744 mmHg 94%
10:00 +17°C° 0.3 mm 3 m/S 744 mmHg 95%
11:00 +17°C° 0.3 mm 3 m/S 744 mmHg 95%
12:00 +18°C° 0.2 mm 4 m/S 744 mmHg 89%
13:00 +19°C° 0.2 mm 4 m/S 743 mmHg 84%
14:00 +20°C° 0.2 mm 4 m/S 743 mmHg 78%
15:00 +20°C° 0.5 mm 4 m/S 743 mmHg 78%
16:00 +20°C° 0.5 mm 5 m/S 743 mmHg 78%
17:00 +20°C° 0.5 mm 5 m/S 743 mmHg 78%
18:00 +18°C° 0.3 mm 4 m/S 743 mmHg 82%
19:00 +17°C° 0.3 mm 4 m/S 743 mmHg 86%
20:00 +16°C° 0.3 mm 3 m/S 743 mmHg 90%
21:00 +14°C° 0.1 mm 3 m/S 743 mmHg 92%
22:00 +13°C° 0.1 mm 3 m/S 744 mmHg 94%
23:00 +12°C° 0.1 mm 3 m/S 744 mmHg 95%
Mehr zeigen